Location: Eastlake (historical)
(39.0077°N, 122.6678°W)
Time: 09:58:24
(UTC+00:00)

Cosmos 1709 Rocket - Pass Details

Date: 25 November 2020
Orbit: 947 x 1003 km, 82.9° (Epoch: 25 January)

Event Time Altitude Azimuth Distance (km) Brightness Sun altitude
Rises 13:43:39 0° 208° (SSW) 3,694 6.9 -15.6°
Reaches altitude 10° 13:46:21 10° 215° (SW) 2,755 6.2 -15.1°
Maximum altitude 13:52:13 39° 283° (WNW) 1,453 4.4 -14.0°
Drops below altitude 10° 13:58:10 10° 352° (N) 2,783 6.1 -12.9°
Sets 14:00:55 0° 360° (N) 3,736 6.9 -12.4°
